• In Italy
  • List of Countries
  • For 7 days
  • Water Temperature
  • Satellite Maps
  • Weather Map
  • Weather Widgets
  • user-avatar
    Login

    Hourly Weather Faro

    Today, 24 September, Monday

    Time Temperature Precipitation Wind Pressure Humidity
    00:00 +28°C° 0 mm 2 mps 762 mmHg 36%
    01:00 +28°C° 0 mm 2 mps 762 mmHg 37%
    02:00 +27°C° 0 mm 2 mps 762 mmHg 37%
    03:00 +27°C° 0 mm 2 mps 762 mmHg 37%
    04:00 +27°C° 0 mm 2 mps 762 mmHg 37%
    05:00 +26°C° 0 mm 2 mps 762 mmHg 40%
    06:00 +29°C° 0 mm 2 mps 762 mmHg 35%
    07:00 +31°C° 0 mm 2 mps 762 mmHg 30%
    08:00 +35°C° 0 mm 2 mps 762 mmHg 26%
    09:00 +37°C° 0 mm 2 mps 762 mmHg 23%
    10:00 +39°C° 0 mm 3 mps 762 mmHg 20%
    11:00 +42°C° 0 mm 3 mps 762 mmHg 18%
    12:00 +42°C° 0 mm 3 mps 762 mmHg 18%
    13:00 +42°C° 0 mm 3 mps 761 mmHg 18%
    14:00 +42°C° 0 mm 3 mps 761 mmHg 18%
    15:00 +39°C° 0 mm 3 mps 761 mmHg 20%
    16:00 +37°C° 0 mm 3 mps 761 mmHg 22%
    17:00 +36°C° 0 mm 3 mps 761 mmHg 24%
    18:00 +34°C° 0 mm 2 mps 761 mmHg 27%
    19:00 +31°C° 0 mm 2 mps 761 mmHg 30%
    20:00 +30°C° 0 mm 2 mps 762 mmHg 32%
    21:00 +30°C° 0 mm 2 mps 762 mmHg 32%
    22:00 +29°C° 0 mm 2 mps 762 mmHg 32%
    23:00 +29°C° 0 mm 2 mps 762 mmHg 32%

    Tomorrow, 25 September, Tuesday

    Time Temperature Precipitation Wind Pressure Humidity
    00:00 +28°C° 0 mm 2 mps 761 mmHg 34%
    01:00 +28°C° 0 mm 2 mps 761 mmHg 36%
    02:00 +27°C° 0 mm 2 mps 761 mmHg 38%
    03:00 +27°C° 0 mm 2 mps 761 mmHg 40%
    04:00 +26°C° 0 mm 3 mps 761 mmHg 41%
    05:00 +26°C° 0 mm 3 mps 761 mmHg 43%
    06:00 +28°C° 0 mm 4 mps 761 mmHg 38%
    07:00 +30°C° 0 mm 4 mps 762 mmHg 33%
    08:00 +34°C° 0 mm 5 mps 762 mmHg 28%
    09:00 +35°C° 0 mm 5 mps 762 mmHg 25%
    10:00 +38°C° 0 mm 6 mps 762 mmHg 22%
    11:00 +40°C° 0 mm 6 mps 762 mmHg 19%
    12:00 +40°C° 0 mm 6 mps 762 mmHg 20%
    13:00 +39°C° 0 mm 6 mps 761 mmHg 21%
    14:00 +39°C° 0 mm 6 mps 761 mmHg 23%
    15:00 +36°C° 0 mm 6 mps 761 mmHg 31%
    16:00 +34°C° 0 mm 6 mps 761 mmHg 39%
    17:00 +33°C° 0 mm 6 mps 761 mmHg 47%
    18:00 +30°C° 0 mm 6 mps 761 mmHg 55%
    19:00 +29°C° 0 mm 5 mps 762 mmHg 62%
    20:00 +27°C° 0 mm 5 mps 762 mmHg 70%
    21:00 +27°C° 0 mm 6 mps 762 mmHg 73%
    22:00 +26°C° 0 mm 6 mps 762 mmHg 77%
    23:00 +26°C° 0 mm 6 mps 762 mmHg 80%

    Day after tomorrow, 26 September, Wednesday

    Time Temperature Precipitation Wind Pressure Humidity
    00:00 +24°C° 0 mm 6 mps 762 mmHg 81%
    01:00 +24°C° 0 mm 7 mps 762 mmHg 81%
    02:00 +24°C° 0 mm 7 mps 762 mmHg 81%
    03:00 +24°C° 0 mm 7 mps 762 mmHg 80%
    04:00 +24°C° 0 mm 7 mps 762 mmHg 79%
    05:00 +24°C° 0 mm 7 mps 762 mmHg 78%
    06:00 +26°C° 0 mm 8 mps 763 mmHg 69%
    07:00 +28°C° 0 mm 8 mps 763 mmHg 60%
    08:00 +31°C° 0 mm 8 mps 763 mmHg 51%
    09:00 +33°C° 0 mm 8 mps 763 mmHg 45%
    10:00 +34°C° 0 mm 8 mps 764 mmHg 40%
    11:00 +36°C° 0 mm 7 mps 764 mmHg 34%
    12:00 +36°C° 0 mm 7 mps 763 mmHg 34%
    13:00 +36°C° 0 mm 7 mps 763 mmHg 33%
    14:00 +38°C° 0 mm 7 mps 762 mmHg 32%
    15:00 +35°C° 0 mm 7 mps 763 mmHg 39%
    16:00 +33°C° 0 mm 7 mps 763 mmHg 45%
    17:00 +32°C° 0 mm 7 mps 763 mmHg 52%
    18:00 +30°C° 0 mm 7 mps 763 mmHg 58%
    19:00 +28°C° 0 mm 7 mps 764 mmHg 64%
    20:00 +27°C° 0 mm 7 mps 764 mmHg 70%
    21:00 +26°C° 0 mm 6 mps 764 mmHg 71%
    22:00 +26°C° 0 mm 6 mps 764 mmHg 72%
    23:00 +26°C° 0 mm 6 mps 764 mmHg 73%

    27 September, Thursday

    Time Temperature Precipitation Wind Pressure Humidity
    00:00 +24°C° 0 mm 6 mps 764 mmHg 74%
    01:00 +24°C° 0 mm 6 mps 764 mmHg 74%
    02:00 +24°C° 0 mm 6 mps 764 mmHg 74%
    03:00 +23°C° 0 mm 5 mps 764 mmHg 74%
    04:00 +23°C° 0 mm 5 mps 764 mmHg 74%
    05:00 +23°C° 0 mm 5 mps 764 mmHg 74%
    06:00 +26°C° 0 mm 5 mps 765 mmHg 67%
    07:00 +28°C° 0 mm 5 mps 765 mmHg 59%
    08:00 +29°C° 0 mm 5 mps 765 mmHg 52%
    09:00 +32°C° 0 mm 5 mps 765 mmHg 46%
    10:00 +34°C° 0 mm 5 mps 765 mmHg 40%
    11:00 +35°C° 0 mm 5 mps 765 mmHg 35%
    12:00 +36°C° 0 mm 5 mps 764 mmHg 32%
    13:00 +37°C° 0 mm 5 mps 764 mmHg 30%
    14:00 +38°C° 0 mm 4 mps 763 mmHg 28%
    15:00 +36°C° 0 mm 5 mps 763 mmHg 32%
    16:00 +35°C° 0 mm 5 mps 763 mmHg 36%
    17:00 +34°C° 0 mm 5 mps 763 mmHg 40%
    18:00 +32°C° 0 mm 5 mps 764 mmHg 48%
    19:00 +29°C° 0 mm 5 mps 764 mmHg 56%
    20:00 +27°C° 0 mm 4 mps 764 mmHg 63%
    21:00 +27°C° 0 mm 4 mps 764 mmHg 66%
    22:00 +26°C° 0 mm 3 mps 764 mmHg 68%
    23:00 +26°C° 0 mm 3 mps 764 mmHg 71%

    28 September, Friday

    Time Temperature Precipitation Wind Pressure Humidity
    00:00 +25°C° 0 mm 3 mps 764 mmHg 73%
    01:00 +25°C° 0 mm 3 mps 763 mmHg 75%
    02:00 +25°C° 0 mm 3 mps 763 mmHg 77%
    03:00 +25°C° 0 mm 3 mps 763 mmHg 79%
    04:00 +24°C° 0 mm 3 mps 763 mmHg 82%
    05:00 +24°C° 0 mm 3 mps 763 mmHg 84%
    06:00 +26°C° 0 mm 3 mps 763 mmHg 76%
    07:00 +27°C° 0 mm 3 mps 763 mmHg 68%
    08:00 +29°C° 0 mm 3 mps 763 mmHg 59%
    09:00 +30°C° 0 mm 3 mps 763 mmHg 53%
    10:00 +33°C° 0 mm 3 mps 763 mmHg 46%
    11:00 +35°C° 0 mm 3 mps 763 mmHg 39%
    12:00 +35°C° 0 mm 3 mps 762 mmHg 37%
    13:00 +35°C° 0 mm 4 mps 762 mmHg 35%
    14:00 +36°C° 0 mm 4 mps 761 mmHg 33%
    15:00 +34°C° 0 mm 4 mps 761 mmHg 38%
    16:00 +33°C° 0 mm 4 mps 761 mmHg 42%
    17:00 +32°C° 0 mm 4 mps 761 mmHg 47%
    18:00 +29°C° 0 mm 3 mps 761 mmHg 53%
    19:00 +28°C° 0 mm 3 mps 761 mmHg 59%
    20:00 +26°C° 0 mm 3 mps 761 mmHg 65%
    21:00 +26°C° 0 mm 3 mps 761 mmHg 66%
    22:00 +25°C° 0 mm 2 mps 761 mmHg 66%
    23:00 +25°C° 0 mm 2 mps 761 mmHg 67%

    29 September, Saturday

    Time Temperature Precipitation Wind Pressure Humidity
    00:00 +25°C° 0.1 mm 2 mps 760 mmHg 68%
    01:00 +24°C° 0.1 mm 1 mps 760 mmHg 68%
    02:00 +24°C° 0.1 mm 1 mps 760 mmHg 69%
    03:00 +24°C° 0 mm 1 mps 760 mmHg 70%
    04:00 +23°C° 0 mm 1 mps 760 mmHg 70%
    05:00 +21°C° 0 mm 0 mps 760 mmHg 71%
    06:00 +25°C° 0 mm 1 mps 760 mmHg 64%
    07:00 +26°C° 0 mm 1 mps 760 mmHg 58%
    08:00 +28°C° 0 mm 1 mps 760 mmHg 52%
    09:00 +30°C° 0 mm 1 mps 760 mmHg 47%
    10:00 +32°C° 0 mm 2 mps 760 mmHg 42%
    11:00 +34°C° 0 mm 2 mps 760 mmHg 37%
    12:00 +35°C° 0 mm 3 mps 759 mmHg 37%
    13:00 +35°C° 0 mm 3 mps 759 mmHg 37%
    14:00 +35°C° 0 mm 3 mps 759 mmHg 37%
    15:00 +33°C° 0.1 mm 4 mps 759 mmHg 42%
    16:00 +32°C° 0.1 mm 4 mps 759 mmHg 47%
    17:00 +29°C° 0.1 mm 4 mps 759 mmHg 53%
    18:00 +28°C° 0.2 mm 3 mps 759 mmHg 59%
    19:00 +26°C° 0.2 mm 3 mps 759 mmHg 66%
    20:00 +24°C° 0.2 mm 3 mps 760 mmHg 72%
    21:00 +24°C° 0.2 mm 2 mps 760 mmHg 73%
    22:00 +24°C° 0.2 mm 2 mps 760 mmHg 73%
    23:00 +23°C° 0.2 mm 2 mps 759 mmHg 74%
    Show more